| time (UTC) | temp C | wind direction | speed KPH | gust KPH | rain 1hr cm | rain 24hr cm | rain mn cm | humidity % | barometer mb |
| 20260904212337 | 21 | 14 | 0.0 | 4.8 | 0.00 | 0.03 | 0.00 | 78 | 1013.2 |
| 20260904211852 | 21 | 14 | 0.0 | 4.8 | 0.00 | 0.03 | 0.00 | 77 | 1013.2 |
| 20260904211346 | 21 | 123 | 0.0 | 3.2 | 0.00 | 0.03 | 0.00 | 78 | 1013.3 |
| 20260904210840 | 21 | 130 | 0.0 | 3.2 | 0.00 | 0.03 | 0.00 | 78 | 1013.3 |
| 20260904210335 | 21 | 130 | 0.0 | 3.2 | 0.00 | 0.03 | 0.00 | 81 | 1013.2 |
| 20260904205841 | 21 | 130 | 0.0 | 3.2 | 0.00 | 0.03 | 0.00 | 81 | 1013.6 |
| 20260904205335 | 21 | 130 | 0.0 | 0.0 | 0.00 | 0.03 | 0.00 | 79 | 1013.7 |
| 20260904204911 | 21 | 130 | 0.0 | 1.6 | 0.00 | 0.03 | 0.00 | 80 | 1013.7 |
| 20260904204345 | 21 | 130 | 0.0 | 1.6 | 0.00 | 0.03 | 0.00 | 81 | 1013.7 |
| 20260904203839 | 21 | 130 | 0.0 | 1.6 | 0.00 | 0.03 | 0.00 | 79 | 1013.7 |
| 20260904203334 | 21 | 130 | 0.0 | 3.2 | 0.00 | 0.03 | 0.00 | 78 | 1013.8 |
| 20260904202847 | 21 | 130 | 0.0 | 3.2 | 0.00 | 0.03 | 0.00 | 77 | 1013.8 |
| 20260904202342 | 21 | 90 | 0.0 | 4.8 | 0.00 | 0.03 | 0.00 | 77 | 1013.8 |
| 20260904201840 | 21 | 92 | 0.0 | 4.8 | 0.00 | 0.03 | 0.00 | 80 | 1013.9 |
| 20260904201356 | 22 | 306 | 1.6 | 8.0 | 0.00 | 0.03 | 0.00 | 79 | 1013.9 |
| 20260904200906 | 22 | 304 | 3.2 | 8.0 | 0.00 | 0.03 | 0.00 | 78 | 1013.8 |
| 20260904200344 | 22 | 5 | 3.2 | 4.8 | 0.00 | 0.03 | 0.00 | 80 | 1013.9 |
| 20260904195849 | 22 | 84 | 0.0 | 9.7 | 0.00 | 0.03 | 0.00 | 79 | 1014.1 |
| 20260904192337 | 21 | 278 | 1.6 | 6.4 | 0.00 | 0.03 | 0.00 | 82 | 1014.4 |
| 20260904191859 | 21 | 246 | 1.6 | 6.4 | 0.00 | 0.03 | 0.00 | 83 | 1014.6 |
| 20260904191341 | 21 | 229 | 1.6 | 4.8 | 0.00 | 0.03 | 0.00 | 82 | 1014.6 |
| 20260904190842 | 21 | 251 | 1.6 | 4.8 | 0.00 | 0.03 | 0.00 | 83 | 1014.8 |
| 20260904190330 | 21 | 351 | 0.0 | 4.8 | 0.00 | 0.03 | 0.00 | 84 | 1014.7 |
| 20260904185836 | 21 | 21 | 1.6 | 4.8 | 0.00 | 0.03 | 0.00 | 83 | 1014.9 |
| 20260904185331 | 22 | 124 | 3.2 | 6.4 | 0.00 | 0.03 | 0.00 | 82 | 1014.9 |
| 20260904184838 | 22 | 93 | 3.2 | 6.4 | 0.00 | 0.03 | 0.00 | 81 | 1015.0 |
| 20260904184342 | 22 | 115 | 3.2 | 6.4 | 0.00 | 0.03 | 0.00 | 80 | 1015.0 |
| 20260904183850 | 22 | 146 | 3.2 | 6.4 | 0.00 | 0.03 | 0.00 | 81 | 1014.9 |
| 20260904183351 | 22 | 115 | 3.2 | 6.4 | 0.00 | 0.03 | 0.00 | 82 | 1014.9 |
| 20260904182838 | 22 | 217 | 1.6 | 12.9 | 0.00 | 0.03 | 0.00 | 80 | 1014.9 |
| 20260904182333 | 22 | 215 | 4.8 | 12.9 | 0.00 | 0.03 | 0.00 | 79 | 1014.9 |
| 20260904181832 | 22 | 244 | 1.6 | 11.3 | 0.00 | 0.03 | 0.00 | 79 | 1014.8 |
| 20260904181338 | 22 | 119 | 1.6 | 8.0 | 0.00 | 0.03 | 0.00 | 80 | 1015.0 |
| 20260904180834 | 22 | 215 | 3.2 | 6.4 | 0.00 | 0.03 | 0.00 | 81 | 1015.1 |
| 20260904180330 | 22 | 273 | 1.6 | 8.0 | 0.00 | 0.03 | 0.00 | 80 | 1015.1 |
| 20260904175836 | 22 | 178 | 1.6 | 8.0 | 0.00 | 0.03 | 0.00 | 82 | 1015.1 |
| 20260904175407 | 22 | 218 | 1.6 | 9.7 | 0.00 | 0.03 | 0.00 | 81 | 1015.2 |
| 20260904174845 | 22 | 229 | 4.8 | 11.3 | 0.00 | 0.03 | 0.00 | 81 | 1015.2 |
| 20260904174348 | 22 | 28 | 4.8 | 11.3 | 0.00 | 0.03 | 0.00 | 79 | 1015.2 |
| 20260904173846 | 22 | 200 | 4.8 | 9.7 | 0.00 | 0.03 | 0.00 | 81 | 1015.3 |
| 20260904173343 | 22 | 51 | 1.6 | 6.4 | 0.00 | 0.03 | 0.00 | 80 | 1015.3 |
| 20260904172846 | 22 | 105 | 1.6 | 9.7 | 0.00 | 0.03 | 0.00 | 79 | 1015.3 |
| 20260904172339 | 22 | 174 | 3.2 | 9.7 | 0.00 | 0.03 | 0.00 | 78 | 1015.6 |
| 20260904171832 | 22 | 303 | 3.2 | 9.7 | 0.00 | 0.03 | 0.00 | 79 | 1015.4 |
| 20260904171355 | 21 | 206 | 3.2 | 6.4 | 0.00 | 0.03 | 0.00 | 79 | 1015.5 |
| 20260904170840 | 22 | 176 | 1.6 | 8.0 | 0.00 | 0.03 | 0.00 | 78 | 1015.8 |
| 20260904170338 | 22 | 298 | 3.2 | 6.4 | 0.00 | 0.03 | 0.00 | 80 | 1015.9 |
| 20260904165837 | 21 | 141 | 1.6 | 4.8 | 0.00 | 0.03 | 0.00 | 80 | 1015.8 |
| 20260904165340 | 21 | 227 | 1.6 | 6.4 | 0.00 | 0.03 | 0.00 | 81 | 1015.9 |
| 20260904164834 | 21 | 37 | 1.6 | 6.4 | 0.00 | 0.03 | 0.00 | 79 | 1016.0 |
| 20260904164338 | 21 | 274 | 3.2 | 6.4 | 0.00 | 0.03 | 0.00 | 79 | 1015.9 |
| 20260904163843 | 21 | 192 | 1.6 | 4.8 | 0.00 | 0.03 | 0.00 | 79 | 1015.8 |
| 20260904163341 | 21 | 192 | 1.6 | 8.0 | 0.00 | 0.03 | 0.00 | 79 | 1015.9 |
| 20260904162835 | 21 | 221 | 3.2 | 8.0 | 0.00 | 0.03 | 0.00 | 79 | 1016.1 |
| 20260904162340 | 21 | 176 | 1.6 | 4.8 | 0.00 | 0.03 | 0.00 | 78 | 1015.9 |
| 20260904161836 | 21 | 360 | 1.6 | 6.4 | 0.00 | 0.03 | 0.00 | 78 | 1016.0 |
| 20260904161338 | 21 | 355 | 3.2 | 6.4 | 0.00 | 0.03 | 0.00 | 76 | 1015.9 |
| 20260904160835 | 22 | 253 | 1.6 | 9.7 | 0.00 | 0.03 | 0.00 | 78 | 1016.0 |
| 20260904160341 | 22 | 218 | 4.8 | 9.7 | 0.00 | 0.03 | 0.00 | 77 | 1015.9 |
| 20260904155843 | 22 | 248 | 4.8 | 8.0 | 0.00 | 0.03 | 0.00 | 76 | 1015.9 |
| 20260904155408 | 22 | 103 | 1.6 | 6.4 | 0.00 | 0.03 | 0.00 | 77 | 1015.7 |
| 20260904154908 | 21 | 192 | 3.2 | 6.4 | 0.00 | 0.03 | 0.00 | 76 | 1015.6 |
| 20260904154330 | 21 | 185 | 4.8 | 6.4 | 0.00 | 0.03 | 0.00 | 75 | 1015.6 |
| 20260904153838 | 21 | 211 | 1.6 | 9.7 | 0.00 | 0.03 | 0.00 | 76 | 1015.5 |
| 20260904153338 | 21 | 355 | 4.8 | 9.7 | 0.00 | 0.03 | 0.00 | 73 | 1015.5 |
| 20260904152834 | 21 | 134 | 3.2 | 11.3 | 0.00 | 0.03 | 0.00 | 74 | 1015.6 |
| 20260904152340 | 21 | 221 | 6.4 | 11.3 | 0.00 | 0.03 | 0.00 | 74 | 1015.5 |
| 20260904151900 | 21 | 193 | 3.2 | 6.4 | 0.00 | 0.03 | 0.00 | 73 | 1015.4 |
| 20260904151335 | 21 | 193 | 1.6 | 6.4 | 0.00 | 0.03 | 0.00 | 72 | 1015.7 |
| 20260904150844 | 21 | 42 | 1.6 | 9.7 | 0.00 | 0.03 | 0.00 | 70 | 1015.7 |
| 20260904150336 | 21 | 346 | 4.8 | 9.7 | 0.00 | 0.03 | 0.00 | 71 | 1015.6 |
| 20260904145839 | 21 | 194 | 1.6 | 6.4 | 0.00 | 0.03 | 0.00 | 73 | 1015.5 |
| 20260904145338 | 21 | 123 | 3.2 | 6.4 | 0.00 | 0.03 | 0.00 | 73 | 1015.5 |
| 20260904144848 | 21 | 216 | 1.6 | 8.0 | 0.00 | 0.03 | 0.00 | 76 | 1015.5 |
| 20260904144332 | 21 | 219 | 3.2 | 8.0 | 0.00 | 0.03 | 0.00 | 73 | 1015.4 |
| 20260904143834 | 21 | 92 | 1.6 | 4.8 | 0.00 | 0.03 | 0.00 | 78 | 1015.4 |
| 20260904143358 | 21 | 92 | 1.6 | 4.8 | 0.00 | 0.03 | 0.00 | 79 | 1015.4 |
| 20260904142907 | 21 | 76 | 1.6 | 4.8 | 0.00 | 0.03 | 0.00 | 79 | 1015.3 |
| 20260904142349 | 20 | 101 | 0.0 | 4.8 | 0.00 | 0.03 | 0.00 | 78 | 1015.2 |
| 20260904141849 | 20 | 102 | 0.0 | 4.8 | 0.00 | 0.03 | 0.00 | 78 | 1015.1 |
| 20260904141342 | 20 | 102 | 0.0 | 6.4 | 0.00 | 0.03 | 0.00 | 80 | 1015.0 |
| 20260904140835 | 20 | 102 | 0.0 | 6.4 | 0.00 | 0.03 | 0.00 | 82 | 1014.9 |
| 20260904140330 | 20 | 102 | 3.2 | 6.4 | 0.00 | 0.03 | 0.00 | 81 | 1015.0 |
| 20260904135909 | 20 | 45 | 0.0 | 4.8 | 0.00 | 0.03 | 0.00 | 82 | 1014.9 |
| 20260904135339 | 20 | 45 | 3.2 | 4.8 | 0.00 | 0.03 | 0.00 | 82 | 1014.9 |
| 20260904134850 | 20 | 45 | 1.6 | 6.4 | 0.00 | 0.03 | 0.00 | 83 | 1014.9 |
| 20260904134332 | 20 | 26 | 3.2 | 6.4 | 0.00 | 0.03 | 0.00 | 83 | 1015.0 |
| 20260904133857 | 20 | 105 | 4.8 | 6.4 | 0.00 | 0.03 | 0.00 | 82 | 1015.0 |
| 20260904133349 | 20 | 97 | 1.6 | 6.4 | 0.00 | 0.03 | 0.00 | 85 | 1015.1 |
| 20260904132838 | 20 | 84 | 1.6 | 4.8 | 0.00 | 0.03 | 0.00 | 81 | 1015.2 |
| 20260904132346 | 20 | 84 | 0.0 | 3.2 | 0.00 | 0.03 | 0.00 | 82 | 1015.3 |
| 20260904131851 | 19 | 84 | 0.0 | 3.2 | 0.00 | 0.03 | 0.00 | 83 | 1015.4 |
| 20260904131340 | 19 | 84 | 0.0 | 3.2 | 0.00 | 0.03 | 0.00 | 83 | 1015.4 |
| 20260904130833 | 19 | 84 | 0.0 | 1.6 | 0.00 | 0.03 | 0.00 | 83 | 1015.4 |
| 20260904130342 | 19 | 84 | 0.0 | 3.2 | 0.00 | 0.03 | 0.00 | 84 | 1015.3 |
| 20260904125833 | 19 | 84 | 1.6 | 4.8 | 0.00 | 0.03 | 0.00 | 82 | 1015.4 |
| 20260904125331 | 19 | 84 | 3.2 | 4.8 | 0.00 | 0.03 | 0.00 | 81 | 1015.6 |
| 20260904124838 | 19 | 84 | 1.6 | 4.8 | 0.00 | 0.03 | 0.00 | 82 | 1015.8 |
| 20260904015847 | 22 | 225 | 3.2 | 8.0 | 0.00 | 0.69 | 0.03 | 93 | 1014.0 |
| 20260904015337 | 22 | 184 | 3.2 | 4.8 | 0.00 | 0.69 | 0.03 | 94 | 1013.9 |
| 20260904014839 | 22 | 268 | 1.6 | 12.9 | 0.00 | 0.69 | 0.03 | 93 | 1013.9 |
| 20260904014348 | 22 | 254 | 4.8 | 12.9 | 0.00 | 0.69 | 0.03 | 93 | 1013.9 |
| 20260904013842 | 22 | 230 | 3.2 | 17.7 | 0.00 | 0.69 | 0.03 | 93 | 1013.9 |
| 20260904013332 | 22 | 220 | 4.8 | 17.7 | 0.00 | 0.69 | 0.03 | 93 | 1013.8 |
| 20260904012909 | 22 | 211 | 3.2 | 19.3 | 0.00 | 0.69 | 0.03 | 94 | 1013.7 |
| 20260904012330 | 22 | 234 | 8.0 | 19.3 | 0.00 | 0.69 | 0.03 | 94 | 1013.7 |
| 20260904011836 | 22 | 221 | 8.0 | 17.7 | 0.00 | 0.69 | 0.03 | 93 | 1013.7 |
| 20260904011400 | 22 | 252 | 8.0 | 19.3 | 0.00 | 0.69 | 0.03 | 93 | 1013.7 |
| 20260904010837 | 22 | 267 | 9.7 | 19.3 | 0.00 | 0.69 | 0.03 | 93 | 1013.8 |
| 20260904010400 | 22 | 215 | 4.8 | 16.1 | 0.00 | 0.69 | 0.03 | 93 | 1013.7 |
| 20260904005837 | 22 | 226 | 4.8 | 16.1 | 0.00 | 0.81 | 0.03 | 93 | 1013.6 |
| 20260904005337 | 22 | 245 | 6.4 | 16.1 | 0.00 | 0.81 | 0.03 | 93 | 1013.4 |
| 20260904004839 | 22 | 235 | 6.4 | 16.1 | 0.00 | 0.81 | 0.03 | 93 | 1013.4 |
| 20260904004338 | 22 | 259 | 6.4 | 16.1 | 0.00 | 0.81 | 0.03 | 93 | 1013.3 |
| 20260904003843 | 22 | 230 | 6.4 | 17.7 | 0.00 | 0.81 | 0.03 | 93 | 1013.4 |
| 20260904003406 | 22 | 271 | 3.2 | 11.3 | 0.03 | 0.81 | 0.03 | 93 | 1013.3 |
| 20260904002854 | 22 | 42 | 4.8 | 16.1 | 0.03 | 0.81 | 0.03 | 93 | 1013.1 |
| 20260904002352 | 22 | 209 | 6.4 | 16.1 | 0.03 | 0.81 | 0.03 | 93 | 1012.9 |
| 20260904001903 | 23 | 157 | 3.2 | 14.5 | 0.03 | 0.81 | 0.03 | 93 | 1012.9 |
| 20260904001343 | 23 | 227 | 4.8 | 14.5 | 0.03 | 0.81 | 0.03 | 93 | 1013.1 |
| 20260904000910 | 23 | 260 | 4.8 | 14.5 | 0.03 | 0.81 | 0.03 | 92 | 1013.1 |
| 20260904000350 | 23 | 222 | 1.6 | 8.0 | 0.03 | 0.81 | 0.03 | 92 | 1013.1 |
| 20260903235843 | 23 | 199 | 3.2 | 8.0 | 0.03 | 1.91 | 0.03 | 92 | 1013.3 |
| 20260903235340 | 23 | 233 | 3.2 | 6.4 | 0.03 | 1.91 | 0.03 | 92 | 1013.4 |
| 20260903234850 | 23 | 268 | 3.2 | 9.7 | 0.03 | 1.91 | 0.03 | 92 | 1013.4 |
| 20260903234333 | 23 | 231 | 4.8 | 9.7 | 0.03 | 1.91 | 0.03 | 91 | 1013.5 |
| 20260903233838 | 23 | 192 | 1.6 | 4.8 | 0.03 | 1.91 | 0.03 | 91 | 1013.7 |
| 20260903233349 | 23 | 263 | 1.6 | 11.3 | 0.00 | 1.88 | 0.00 | 91 | 1013.8 |
| 20260903232849 | 23 | 243 | 3.2 | 11.3 | 0.00 | 1.88 | 0.00 | 91 | 1013.8 |
| 20260903232331 | 23 | 171 | 3.2 | 9.7 | 0.00 | 1.88 | 0.00 | 91 | 1013.8 |
| 20260903231900 | 23 | 221 | 1.6 | 8.0 | 0.00 | 1.88 | 0.00 | 91 | 1013.6 |
| 20260903231338 | 23 | 200 | 3.2 | 8.0 | 0.00 | 1.88 | 0.00 | 91 | 1013.6 |
| 20260903230847 | 23 | 199 | 3.2 | 8.0 | 0.00 | 1.88 | 0.00 | 90 | 1013.5 |
| 20260903230346 | 23 | 244 | 1.6 | 11.3 | 0.00 | 1.88 | 0.00 | 90 | 1013.8 |
| 20260903225847 | 23 | 254 | 1.6 | 11.3 | 0.00 | 1.88 | 0.00 | 90 | 1013.8 |
| 20260903225341 | 23 | 232 | 3.2 | 6.4 | 0.00 | 1.88 | 0.00 | 90 | 1013.8 |
| 20260903224848 | 23 | 336 | 3.2 | 6.4 | 0.00 | 1.88 | 0.00 | 90 | 1013.8 |
| 20260903224332 | 23 | 222 | 3.2 | 8.0 | 0.00 | 1.88 | 0.00 | 90 | 1013.8 |
| 20260903223840 | 23 | 181 | 4.8 | 11.3 | 0.00 | 1.88 | 0.00 | 90 | 1013.8 |
| 20260903223337 | 23 | 224 | 4.8 | 11.3 | 0.00 | 1.88 | 0.00 | 90 | 1013.9 |
| 20260903222845 | 23 | 215 | 3.2 | 9.7 | 0.00 | 1.88 | 0.00 | 90 | 1013.8 |
| 20260903222343 | 23 | 238 | 1.6 | 6.4 | 0.00 | 1.88 | 0.00 | 90 | 1014.0 |
| 20260903221839 | 23 | 246 | 3.2 | 8.0 | 0.00 | 1.88 | 0.00 | 90 | 1014.1 |
| 20260903221336 | 23 | 227 | 3.2 | 14.5 | 0.00 | 1.88 | 0.00 | 90 | 1013.8 |
| 20260903220854 | 23 | 223 | 4.8 | 14.5 | 0.00 | 1.88 | 0.00 | 90 | 1013.6 |
| 20260903220332 | 23 | 219 | 3.2 | 6.4 | 0.00 | 1.88 | 0.00 | 90 | 1013.5 |
| 20260903215837 | 23 | 222 | 3.2 | 6.4 | 0.00 | 1.88 | 0.00 | 90 | 1013.4 |
| 20260903215342 | 23 | 309 | 1.6 | 6.4 | 0.00 | 1.88 | 0.00 | 90 | 1013.4 |
| 20260903214846 | 23 | 334 | 1.6 | 6.4 | 0.00 | 1.88 | 0.00 | 90 | 1013.4 |
| 20260903214347 | 23 | 187 | 1.6 | 6.4 | 0.00 | 1.88 | 0.00 | 90 | 1013.2 |
| 20260903213848 | 23 | 187 | 3.2 | 6.4 | 0.00 | 1.88 | 0.00 | 90 | 1012.9 |
| 20260903213343 | 23 | 187 | 3.2 | 6.4 | 0.00 | 1.88 | 0.00 | 90 | 1012.9 |
| 20260903212836 | 23 | 187 | 3.2 | 9.7 | 0.00 | 1.88 | 0.00 | 89 | 1013.0 |